Radiation Dose at Monitoring Post of Fukushima Daini Nuclear Power Station
Date,Time,MP-1(microSv/h),MP-2(microSv/h),MP-3(microSv/h),MP-4(microSv/h),MP-5(microSv/h),MP-6(microSv/h),MP-7(microSv/h),Wind Direction,Wind Velocity(m/s),Rain
2017/03/01,00:00,0.398,0.237,0.411,0.378,0.338,0.198,0.167,north-northwest,1.2,No
2017/03/01,00:10,0.398,0.237,0.408,0.379,0.337,0.198,0.167,northwest,1.4,No
2017/03/01,00:20,0.398,0.236,0.410,0.376,0.338,0.197,0.167,north-northwest,1.8,No
2017/03/01,00:30,0.398,0.236,0.410,0.378,0.339,0.197,0.167,northwest,0.9,No
2017/03/01,00:40,0.398,0.236,0.409,0.378,0.337,0.198,0.168,north-northwest,0.8,No
2017/03/01,00:50,0.399,0.236,0.410,0.377,0.337,0.197,0.167,northwest,0.6,No
2017/03/01,01:00,0.399,0.237,0.409,0.377,0.335,0.197,0.168,northwest,0.7,No
2017/03/01,01:10,0.398,0.237,0.409,0.379,0.337,0.197,0.166,-,CALM,No
2017/03/01,01:20,0.399,0.236,0.411,0.379,0.339,0.198,0.167,-,CALM,No
2017/03/01,01:30,0.398,0.236,0.411,0.378,0.339,0.197,0.167,-,CALM,No
2017/03/01,01:40,0.397,0.237,0.411,0.378,0.336,0.196,0.167,-,CALM,No
2017/03/01,01:50,0.398,0.236,0.410,0.378,0.337,0.197,0.167,north,0.8,No
2017/03/01,02:00,0.398,0.236,0.410,0.377,0.338,0.196,0.167,north,0.8,No
2017/03/01,02:10,0.399,0.236,0.409,0.379,0.337,0.198,0.167,-,CALM,No
2017/03/01,02:20,0.398,0.236,0.412,0.378,0.338,0.196,0.168,north,1.1,No
2017/03/01,02:30,0.397,0.236,0.410,0.379,0.338,0.197,0.167,north,1.7,No
2017/03/01,02:40,0.398,0.236,0.410,0.378,0.338,0.197,0.167,north,0.8,No
2017/03/01,02:50,0.399,0.237,0.409,0.376,0.338,0.197,0.167,north,1.0,No
2017/03/01,03:00,0.398,0.236,0.410,0.376,0.337,0.197,0.167,north-northwest,0.6,No
2017/03/01,03:10,0.399,0.236,0.410,0.378,0.337,0.197,0.166,north-northwest,1.4,No
2017/03/01,03:20,0.398,0.235,0.411,0.378,0.338,0.197,0.167,north,1.7,No
2017/03/01,03:30,0.397,0.236,0.410,0.376,0.338,0.197,0.166,north-northeast,1.1,No
2017/03/01,03:40,0.397,0.236,0.410,0.378,0.338,0.198,0.167,north-northwest,0.6,No
2017/03/01,03:50,0.399,0.237,0.409,0.378,0.338,0.198,0.168,-,CALM,No
2017/03/01,04:00,0.398,0.236,0.410,0.379,0.337,0.197,0.167,-,CALM,No
2017/03/01,04:10,0.399,0.235,0.410,0.379,0.337,0.197,0.167,north,0.7,No
2017/03/01,04:20,0.399,0.236,0.411,0.378,0.337,0.198,0.167,north,0.6,No
2017/03/01,04:30,0.398,0.237,0.408,0.377,0.337,0.197,0.166,north,0.6,No
2017/03/01,04:40,0.399,0.236,0.411,0.379,0.339,0.198,0.167,-,CALM,No
2017/03/01,04:50,0.399,0.236,0.411,0.378,0.338,0.196,0.167,-,CALM,No
2017/03/01,05:00,0.398,0.236,0.411,0.377,0.336,0.197,0.167,west-northwest,0.6,No
2017/03/01,05:10,0.399,0.237,0.412,0.376,0.339,0.199,0.167,-,CALM,No
2017/03/01,05:20,0.399,0.236,0.410,0.378,0.337,0.197,0.168,north-northwest,0.8,No
2017/03/01,05:30,0.398,0.237,0.410,0.377,0.337,0.199,0.167,north-northwest,0.8,No
2017/03/01,05:40,0.398,0.236,0.410,0.377,0.338,0.197,0.168,north,0.8,No
2017/03/01,05:50,0.399,0.237,0.408,0.378,0.337,0.197,0.167,north-northwest,1.1,No
2017/03/01,06:00,0.397,0.235,0.410,0.378,0.337,0.197,0.167,north-northwest,0.6,No
2017/03/01,06:10,0.400,0.235,0.410,0.378,0.339,0.197,0.166,northwest,1.1,No
2017/03/01,06:20,0.397,0.237,0.411,0.378,0.338,0.197,0.167,north-northwest,1.4,No
2017/03/01,06:30,0.397,0.236,0.409,0.378,0.339,0.196,0.167,north-northwest,1.1,No
2017/03/01,06:40,0.399,0.236,0.411,0.380,0.339,0.198,0.167,northwest,1.1,No
2017/03/01,06:50,0.399,0.236,0.409,0.377,0.337,0.196,0.167,northwest,1.1,No
2017/03/01,07:00,0.399,0.237,0.410,0.378,0.338,0.197,0.167,west-northwest,0.8,No
2017/03/01,07:10,0.398,0.236,0.410,0.378,0.337,0.197,0.166,northwest,0.6,No
2017/03/01,07:20,0.398,0.236,0.411,0.379,0.339,0.197,0.166,north,1.4,No
2017/03/01,07:30,0.397,0.236,0.410,0.377,0.337,0.197,0.167,north-northwest,1.0,No
2017/03/01,07:40,0.399,0.237,0.410,0.375,0.335,0.197,0.167,north-northwest,1.1,No
2017/03/01,07:50,0.398,0.237,0.411,0.375,0.337,0.197,0.167,north-northwest,1.7,No
2017/03/01,08:00,0.398,0.236,0.410,0.378,0.336,0.198,0.166,north-northwest,1.6,No
2017/03/01,08:10,0.397,0.236,0.409,0.376,0.338,0.196,0.166,north,2.1,No
2017/03/01,08:20,0.397,0.237,0.409,0.375,0.337,0.198,0.166,north-northeast,1.7,No
2017/03/01,08:30,0.399,0.236,0.409,0.378,0.338,0.198,0.166,north-northwest,2.5,No
2017/03/01,08:40,0.397,0.234,0.410,0.376,0.339,0.196,0.166,north-northeast,1.3,No
2017/03/01,08:50,0.397,0.234,0.407,0.377,0.337,0.198,0.165,east-northeast,2.0,No
2017/03/01,09:00,0.398,0.234,0.409,0.378,0.337,0.197,0.166,northeast,1.7,No
2017/03/01,09:10,0.399,0.236,0.410,0.376,0.338,0.198,0.166,east-northeast,2.5,No
2017/03/01,09:20,0.398,0.234,0.408,0.379,0.337,0.196,0.166,northeast,2.3,No
2017/03/01,09:30,0.395,0.235,0.409,0.375,0.337,0.197,0.167,east,1.7,No
2017/03/01,09:40,0.398,0.235,0.411,0.376,0.338,0.196,0.167,east-southeast,2.6,No
2017/03/01,09:50,0.395,0.235,0.409,0.378,0.338,0.196,0.166,east-northeast,2.7,No
2017/03/01,10:00,0.397,0.235,0.406,0.375,0.337,0.197,0.167,east-southeast,2.5,No
2017/03/01,10:10,0.396,0.235,0.408,0.377,0.338,0.196,0.167,east-southeast,2.8,No
2017/03/01,10:20,0.395,0.237,0.410,0.375,0.332,0.197,0.166,east-southeast,2.8,No
2017/03/01,10:30,0.398,0.234,0.410,0.379,0.325,0.197,0.168,east-southeast,1.2,No
2017/03/01,10:40,0.395,0.234,0.407,0.377,0.322,0.197,0.167,east,2.1,No
2017/03/01,10:50,0.397,0.236,0.409,0.377,0.323,0.198,0.168,east,3.1,No
2017/03/01,11:00,0.395,0.235,0.408,0.376,0.343,0.196,0.167,east-southeast,2.5,No
2017/03/01,11:10,0.398,0.236,0.407,0.376,0.338,0.196,0.166,east-southeast,1.9,No
2017/03/01,11:20,0.398,0.235,0.410,0.380,0.345,0.197,0.168,southeast,0.8,No
2017/03/01,11:30,0.396,0.235,0.406,0.378,0.340,0.197,0.167,east-southeast,1.9,No
2017/03/01,11:40,0.397,0.235,0.410,0.378,0.343,0.197,0.166,southeast,1.9,No
2017/03/01,11:50,0.395,0.237,0.406,0.377,0.340,0.197,0.166,southeast,2.9,No
2017/03/01,12:00,0.396,0.236,0.408,0.378,0.339,0.197,0.167,southeast,2.7,No
2017/03/01,12:10,0.395,0.237,0.406,0.378,0.339,0.198,0.167,southeast,1.9,No
2017/03/01,12:20,0.396,0.236,0.408,0.376,0.338,0.197,0.168,south-southeast,3.2,No
2017/03/01,12:30,0.395,0.235,0.406,0.379,0.339,0.198,0.166,southeast,1.9,No
2017/03/01,12:40,0.398,0.236,0.406,0.376,0.336,0.197,0.167,southeast,2.9,No
2017/03/01,12:50,0.395,0.236,0.407,0.380,0.340,0.197,0.167,southeast,3.1,No
2017/03/01,13:00,0.397,0.236,0.408,0.377,0.337,0.197,0.166,southeast,3.1,No
2017/03/01,13:10,0.397,0.236,0.409,0.377,0.337,0.197,0.167,southeast,2.0,No
2017/03/01,13:20,0.397,0.236,0.408,0.379,0.339,0.198,0.167,south-southeast,4.5,No
2017/03/01,13:30,0.398,0.237,0.412,0.376,0.338,0.197,0.166,southeast,2.8,No
2017/03/01,13:40,0.397,0.236,0.408,0.376,0.341,0.197,0.164,southeast,3.4,No
2017/03/01,13:50,0.398,0.237,0.409,0.377,0.338,0.198,0.166,southeast,2.7,No
2017/03/01,14:00,0.397,0.236,0.409,0.376,0.339,0.197,-,south-southeast,2.9,No
2017/03/01,14:10,0.398,0.235,0.407,0.379,0.338,0.198,0.168,southeast,1.9,No
2017/03/01,14:20,0.397,0.236,0.409,0.378,0.339,0.198,0.167,southeast,2.4,No
2017/03/01,14:30,0.395,0.236,0.409,0.379,0.340,0.197,0.168,southeast,2.4,No
2017/03/01,14:40,0.399,0.236,0.408,0.378,0.339,0.197,0.168,south-southeast,3.4,No
2017/03/01,14:50,0.398,0.238,0.411,0.376,0.337,0.198,0.168,south-southeast,1.6,No
2017/03/01,15:00,0.397,0.236,0.408,0.378,0.339,0.196,0.167,southeast,1.2,No
2017/03/01,15:10,0.397,0.236,0.408,0.370,0.338,0.198,0.168,southeast,2.2,No
2017/03/01,15:20,0.397,0.237,0.409,0.364,0.337,0.197,0.167,south-southeast,2.8,No
2017/03/01,15:30,0.398,0.236,0.409,0.364,0.338,0.198,0.168,south-southeast,2.7,No
2017/03/01,15:40,0.398,0.236,0.410,0.370,0.337,0.198,0.168,southeast,3.1,No
2017/03/01,15:50,0.398,0.236,0.410,0.380,0.340,0.198,0.167,southeast,2.2,No
2017/03/01,16:00,0.398,0.238,0.408,0.381,0.337,0.196,0.167,south-southeast,2.0,No
2017/03/01,16:10,0.397,0.238,0.409,0.380,0.337,0.197,0.167,south-southeast,1.7,No
2017/03/01,16:20,0.396,0.237,0.408,0.381,0.340,0.196,0.168,south-southeast,1.2,No
2017/03/01,16:30,0.399,0.237,0.408,0.379,0.338,0.197,0.166,south-southeast,1.6,No
2017/03/01,16:40,0.397,0.236,0.410,0.379,0.339,0.197,0.168,southeast,2.4,No
2017/03/01,16:50,0.398,0.236,0.408,0.380,0.339,0.195,0.166,south-southeast,1.8,No
2017/03/01,17:00,0.398,0.237,0.408,0.380,0.339,0.194,0.167,south-southeast,1.4,No
2017/03/01,17:10,0.398,0.236,0.410,0.377,0.337,0.194,0.167,east-southeast,1.3,No
2017/03/01,17:20,0.396,0.238,0.409,0.377,0.338,0.197,0.167,southeast,1.1,No
2017/03/01,17:30,0.397,0.238,0.407,0.380,0.339,0.197,0.167,southeast,0.8,No
2017/03/01,17:40,0.399,0.236,0.410,0.377,0.338,0.198,0.167,northeast,1.7,No
2017/03/01,17:50,0.397,0.237,0.409,0.380,0.338,0.197,0.167,north-northeast,1.0,No
2017/03/01,18:00,0.397,0.237,0.409,0.379,0.338,0.198,0.166,north-northeast,1.6,No
2017/03/01,18:10,0.399,0.236,0.409,0.378,0.339,0.198,0.167,-,CALM,No
2017/03/01,18:20,0.396,0.236,0.411,0.377,0.337,0.198,0.167,-,CALM,No
2017/03/01,18:30,0.397,0.235,0.408,0.380,0.338,0.198,0.167,-,CALM,No
2017/03/01,18:40,0.396,0.238,0.408,0.380,0.338,0.198,0.167,northwest,1.1,No
2017/03/01,18:50,0.398,0.237,0.411,0.379,0.338,0.197,0.166,-,CALM,No
2017/03/01,19:00,0.398,0.238,0.409,0.377,0.337,0.199,0.167,-,CALM,No
2017/03/01,19:10,0.398,0.236,0.410,0.378,0.338,0.197,0.167,southwest,0.6,No
2017/03/01,19:20,0.397,0.235,0.410,0.379,0.338,0.198,0.167,west-southwest,1.4,No
2017/03/01,19:30,0.398,0.237,0.410,0.376,0.338,0.197,0.167,west,0.6,No
2017/03/01,19:40,0.398,0.237,0.409,0.377,0.338,0.197,0.166,southwest,1.6,No
2017/03/01,19:50,0.398,0.237,0.409,0.378,0.337,0.198,0.167,south-southwest,1.9,No
2017/03/01,20:00,0.398,0.237,0.410,0.379,0.339,0.198,0.168,south-southwest,2.2,No
2017/03/01,20:10,0.399,0.236,0.410,0.378,0.339,0.198,0.166,southwest,1.7,No
2017/03/01,20:20,0.396,0.237,0.408,0.378,0.337,0.198,0.167,southwest,2.5,No
2017/03/01,20:30,0.399,0.238,0.409,0.378,0.339,0.198,0.167,west,0.8,No
2017/03/01,20:40,0.397,0.238,0.409,0.379,0.338,0.199,0.168,southwest,1.4,No
2017/03/01,20:50,0.396,0.238,0.408,0.378,0.339,0.197,0.167,south-southwest,4.8,No
2017/03/01,21:00,0.398,0.236,0.409,0.378,0.338,0.198,0.167,south-southwest,2.9,No
2017/03/01,21:10,0.397,0.237,0.410,0.379,0.338,0.198,0.167,south-southwest,5.0,No
2017/03/01,21:20,0.397,0.237,0.411,0.378,0.338,0.198,0.167,south-southwest,2.7,No
2017/03/01,21:30,0.398,0.237,0.409,0.379,0.339,0.199,0.168,south-southwest,5.7,No
2017/03/01,21:40,0.397,0.238,0.410,0.377,0.337,0.198,0.167,south,7.5,No
2017/03/01,21:50,0.397,0.238,0.411,0.379,0.338,0.198,0.168,south-southwest,6.4,No
2017/03/01,22:00,0.398,0.237,0.409,0.379,0.337,0.198,0.168,south,7.0,No
2017/03/01,22:10,0.398,0.238,0.410,0.376,0.339,0.199,0.167,south-southwest,2.7,No
2017/03/01,22:20,0.395,0.238,0.411,0.379,0.337,0.198,0.166,south-southwest,3.1,No
2017/03/01,22:30,0.396,0.237,0.409,0.379,0.338,0.197,0.167,south-southwest,6.5,No
2017/03/01,22:40,0.398,0.237,0.410,0.377,0.339,0.198,0.167,south,6.4,No
2017/03/01,22:50,0.398,0.237,0.410,0.378,0.338,0.198,0.167,south,6.3,No
2017/03/01,23:00,0.398,0.237,0.409,0.379,0.338,0.197,0.168,south-southwest,2.5,No
2017/03/01,23:10,0.397,0.239,0.409,0.379,0.338,0.199,0.168,south-southwest,2.5,No
2017/03/01,23:20,0.396,0.238,0.410,0.378,0.339,0.197,0.167,south,6.6,No
2017/03/01,23:30,0.398,0.238,0.411,0.377,0.339,0.199,0.167,south-southwest,5.5,No
2017/03/01,23:40,0.396,0.238,0.409,0.380,0.338,0.198,0.168,south-southwest,5.0,No
2017/03/01,23:50,0.396,0.238,0.410,0.378,0.337,0.198,0.168,south-southwest,4.7,No
